User: anonymous   Login
Location: Caltech
(34.1382°N, 118.1253°W)
Time: 08:20:21
(UTC-07:00)
Language:

ASTRO E2 - Orbit

View from above orbital plane
View from above orbital plane
View from above satellite
View from above satellite

Ground track
Ground track

The orbit data is extracted from the following two-line orbital elements,

1 28773U 05025A   17229.16778794  .00000839  00000-0  38247-4 0  9997
2 28773  31.3822 260.9547 0004791 239.3522 120.6652 15.15916172666613
Epoch (UTC): 17 August 2017 04:01:36
Eccentricity: 0.0004791
inclination: 31.3822°
perigee height: 515 km
apogee height: 521 km
right ascension of ascending node: 260.9547°
argument of perigee: 239.3522°
revolutions per day: 15.15916172
mean anomaly at epoch: 120.6652°
orbit number at epoch: 66661

The dashed part of the orbit path shows where the satellite is in the earth's shadow,  

DLR